Madisonville, KY

7:51 PM CDT on April 22, 2018 (GMT -0500)
Madisonville

Weather History for K2I0 - December, 2012

Change the Weather History Date:

Friday, December 21, 2012

  Actual Average (KOWB) Record (KOWB)
Temperature  
Mean Temperature 35 °F -  
Max Temperature 40 °F 42 °F 69 °F (1967)
Min Temperature 30 °F 25 °F -3 °F (1989)
Degree Days  
Heating Degree Days 30    
Moisture  
Dew Point 21 °F    
Average Humidity 59    
Maximum Humidity 70    
Minimum Humidity 43    
Precipitation  
Precipitation 0.00 in - - ()
Sea Level Pressure  
Sea Level Pressure 30.10 in    
Wind  
Wind Speed 19 mph (WNW)    
Max Wind Speed 28 mph    
Max Gust Speed 36 mph    
Visibility 10 miles    
Events      
Averages and records for this station are not official NWS values.
T = Trace of Precipitation, MM = Missing Value Source: NWS Daily Summary

Daily Weather History Graph

Daily Weather History Graph

Search for Another Location

Airport or City:

Astronomy

Dec. 21, 2012 Rise Set
Actual Time 7:00 AM CST 4:35 PM CST
Civil Twilight 6:31 AM CST 5:04 PM CST
Nautical Twilight 5:58 AM CST 5:37 PM CST
Astronomical Twilight 5:26 AM CST 6:09 PM CST
Moon 12:17 PM CST (12/21) 12:52 AM CST (12/21)
Length of Visible Light 10h 33m
Length of Day
9h 35m
Waxing Gibbous, 65% of the Moon is Illuminated
Dec 21
Waxing Gibbous
Dec 28
Full
Jan 4
Last Quarter
Jan 11
New
Jan 18
First Quarter

Hourly Weather History & Observations

Time (CST) Temp. Windchill Dew Point Humidity Pressure Visibility Wind Dir Wind Speed Gust Speed Precip Events Conditions
12:15 AM 34.3 °F 22.9 °F 25.0 °F 69% 29.88 in 10.0 mi WNW 20.7 mph 33.4 mph N/A   Overcast
12:35 AM 34.0 °F 22.7 °F 25.0 °F 70% 29.89 in 10.0 mi West 19.6 mph 29.9 mph N/A   Overcast
12:55 AM 33.8 °F 20.5 °F 24.3 °F 68% 29.89 in 10.0 mi West 27.6 mph 32.2 mph N/A   Overcast
1:15 AM 33.6 °F 20.5 °F 24.1 °F 68% 29.90 in 10.0 mi WNW 26.5 mph 33.4 mph N/A   Overcast
1:35 AM 33.3 °F 21.5 °F 23.7 °F 68% 29.91 in 10.0 mi West 20.7 mph 26.5 mph N/A   Overcast
1:55 AM 32.9 °F 21.3 °F 23.5 °F 68% 29.92 in 10.0 mi WNW 19.6 mph 28.8 mph N/A   Overcast
2:15 AM 32.5 °F 19.9 °F 23.0 °F 68% 29.92 in 10.0 mi West 23.0 mph 31.1 mph N/A   Overcast
2:35 AM 32.4 °F 21.7 °F 23.4 °F 69% 29.93 in 10.0 mi WNW 16.1 mph 26.5 mph N/A   Overcast
2:55 AM 32.4 °F 20.9 °F 23.5 °F 70% 29.93 in 10.0 mi West 18.4 mph 23.0 mph N/A   Overcast
3:15 AM 32.9 °F 22.8 °F 23.4 °F 68% 29.94 in 10.0 mi WNW 15.0 mph 29.9 mph N/A   Overcast
3:35 AM 32.5 °F 20.8 °F 23.5 °F 69% 29.94 in 10.0 mi WNW 19.6 mph 27.6 mph N/A   Overcast
3:55 AM 32.2 °F 20.7 °F 23.0 °F 69% 29.94 in 10.0 mi WNW 18.4 mph 33.4 mph N/A   Mostly Cloudy
4:15 AM 32.0 °F 20.5 °F 22.8 °F 69% 29.95 in 10.0 mi WNW 18.4 mph 28.8 mph N/A   Scattered Clouds
4:35 AM 32.0 °F 20.1 °F 22.6 °F 68% 29.96 in 10.0 mi WNW 19.6 mph 24.2 mph N/A   Scattered Clouds
4:55 AM 31.8 °F 20.2 °F 22.3 °F 68% 29.96 in 10.0 mi WNW 18.4 mph 28.8 mph N/A   Clear
5:15 AM 31.6 °F 18.7 °F 22.1 °F 68% 29.97 in 10.0 mi WNW 23.0 mph 29.9 mph N/A   Clear
5:35 AM 31.5 °F 20.1 °F 21.9 °F 68% 29.97 in 10.0 mi WNW 17.3 mph 25.3 mph N/A   Clear
5:55 AM 31.3 °F 19.9 °F 21.9 °F 68% 29.98 in 10.0 mi WNW 17.3 mph 27.6 mph N/A   Clear
6:15 AM 31.1 °F 20.5 °F 21.9 °F 69% 30.00 in 10.0 mi WNW 15.0 mph 26.5 mph N/A   Clear
6:35 AM 31.1 °F 19.3 °F 21.6 °F 68% 30.01 in 10.0 mi WNW 18.4 mph 24.2 mph N/A   Clear
6:55 AM 31.1 °F 19.3 °F 21.6 °F 68% 30.01 in 10.0 mi WNW 18.4 mph 26.5 mph N/A   Clear
7:15 AM 31.1 °F 19.3 °F 21.2 °F 67% 30.02 in 10.0 mi WNW 18.4 mph 26.5 mph N/A   Clear
7:35 AM 31.5 °F 19.8 °F 21.4 °F 66% 30.02 in 10.0 mi WNW 18.4 mph 28.8 mph N/A   Clear
7:55 AM 32.0 °F 19.2 °F 21.6 °F 65% 30.04 in 10.0 mi WNW 23.0 mph 28.8 mph N/A   Clear
8:15 AM 32.0 °F 20.1 °F 21.6 °F 65% 30.04 in 10.0 mi WNW 19.6 mph 31.1 mph N/A   Clear
8:35 AM 32.9 °F 20.7 °F 21.9 °F 64% 30.05 in 10.0 mi WNW 21.9 mph 31.1 mph N/A   Clear
8:55 AM 33.4 °F 21.7 °F 21.9 °F 63% 30.06 in 10.0 mi WNW 20.7 mph 31.1 mph N/A   Clear
9:15 AM 34.0 °F 23.0 °F 21.9 °F 61% 30.08 in 10.0 mi WNW 18.4 mph 32.2 mph N/A   Clear
9:35 AM 34.9 °F 23.3 °F 22.3 °F 60% 30.09 in 10.0 mi WNW 21.9 mph 28.8 mph N/A   Clear
9:55 AM 35.1 °F 23.5 °F 22.1 °F 59% 30.09 in 10.0 mi WNW 21.9 mph 35.7 mph N/A   Clear
10:15 AM 35.6 °F 24.0 °F 22.1 °F 58% 30.10 in 10.0 mi WNW 23.0 mph 33.4 mph N/A   Clear
10:35 AM 36.3 °F 25.2 °F 22.5 °F 57% 30.10 in 10.0 mi NW 21.9 mph 35.7 mph N/A   Clear
10:55 AM 36.7 °F 25.7 °F 23.2 °F 58% 30.10 in 10.0 mi WNW 21.9 mph 31.1 mph N/A   Clear
11:15 AM 37.0 °F 25.9 °F 23.2 °F 57% 30.10 in 10.0 mi WNW 23.0 mph 33.4 mph N/A   Clear
11:35 AM 38.1 °F 27.1 °F 23.5 °F 56% 30.10 in 10.0 mi WNW 24.2 mph 33.4 mph N/A   Clear
11:55 AM 37.8 °F 27.4 °F 23.9 °F 57% 30.10 in 10.0 mi NW 20.7 mph 34.5 mph N/A   Clear
12:15 PM 38.3 °F 27.1 °F 23.4 °F 55% 30.11 in 10.0 mi WNW 25.3 mph 33.4 mph N/A   Clear
12:35 PM 39.2 °F 30.2 °F 24.3 °F 55% 30.12 in 10.0 mi WNW 17.3 mph 27.6 mph N/A   Clear
12:55 PM 39.7 °F 29.7 °F 24.4 °F 54% 30.12 in 10.0 mi WNW 21.9 mph 29.9 mph N/A   Clear
1:15 PM 40.3 °F 31.3 °F 23.9 °F 52% 30.11 in 10.0 mi WNW 18.4 mph 32.2 mph N/A   Clear
1:35 PM 40.5 °F 30.2 °F 22.1 °F 48% 30.12 in 10.0 mi NW 24.2 mph 33.4 mph N/A   Clear
1:55 PM 40.5 °F 31.5 °F 21.2 °F 46% 30.13 in 10.0 mi NW 18.4 mph 31.1 mph N/A   Clear
2:15 PM 40.6 °F 30.2 °F 21.4 °F 46% 30.14 in 10.0 mi WNW 25.3 mph 33.4 mph N/A   Clear
2:35 PM 40.8 °F 33.3 °F 21.2 °F 46% 30.14 in 10.0 mi WNW 13.8 mph 27.6 mph N/A   Clear
2:55 PM 40.3 °F 31.6 °F 19.2 °F 43% 30.14 in 10.0 mi NW 17.3 mph 29.9 mph N/A   Clear
3:15 PM 40.1 °F 29.9 °F 19.6 °F 44% 30.14 in 10.0 mi NW 23.0 mph 28.8 mph N/A   Clear
3:35 PM 40.1 °F 30.7 °F 20.3 °F 45% 30.15 in 10.0 mi WNW 19.6 mph 28.8 mph N/A   Clear
3:55 PM 39.2 °F 30.8 °F 19.8 °F 46% 30.16 in 10.0 mi WNW 15.0 mph 25.3 mph N/A   Clear
4:15 PM 38.3 °F 28.7 °F 19.4 °F 47% 30.17 in 10.0 mi WNW 18.4 mph 32.2 mph N/A   Clear
4:35 PM 37.6 °F 29.6 °F 19.9 °F 49% 30.17 in 10.0 mi WNW 12.7 mph 26.5 mph N/A   Clear
4:55 PM 37.4 °F 27.8 °F 19.6 °F 49% 30.18 in 10.0 mi WNW 17.3 mph 25.3 mph N/A   Clear
5:15 PM 36.7 °F 26.3 °F 19.6 °F 50% 30.19 in 10.0 mi WNW 19.6 mph 23.0 mph N/A   Clear
5:35 PM 36.5 °F 26.3 °F 19.0 °F 49% 30.20 in 10.0 mi WNW 18.4 mph 26.5 mph N/A   Clear
5:55 PM 36.0 °F 27.1 °F 19.0 °F 50% 30.21 in 10.0 mi WNW 13.8 mph 24.2 mph N/A   Clear
6:15 PM 35.6 °F 28.0 °F 19.2 °F 51% 30.22 in 10.0 mi WNW 10.4 mph 17.3 mph N/A   Clear
6:35 PM 35.2 °F 27.1 °F 19.2 °F 52% 30.22 in 10.0 mi WNW 11.5 mph - N/A   Clear
6:55 PM 34.7 °F 24.3 °F 19.0 °F 53% 30.22 in 10.0 mi WNW 17.3 mph 20.7 mph N/A   Clear
7:15 PM 34.7 °F 24.7 °F 18.9 °F 52% 30.23 in 10.0 mi WNW 16.1 mph 19.6 mph N/A   Clear
7:35 PM 34.3 °F 24.6 °F 18.7 °F 53% 30.23 in 10.0 mi WNW 15.0 mph 23.0 mph N/A   Clear
7:55 PM 34.0 °F 24.2 °F 18.7 °F 54% 30.24 in 10.0 mi WNW 15.0 mph 20.7 mph N/A   Clear
8:15 PM 33.1 °F 23.9 °F 19.4 °F 57% 30.25 in 10.0 mi WNW 12.7 mph 16.1 mph N/A   Clear
8:35 PM 33.1 °F 26.1 °F 19.2 °F 57% 30.26 in 10.0 mi WNW 8.1 mph - N/A   Clear
8:55 PM 32.5 °F 24.8 °F 19.2 °F 58% 30.26 in 10.0 mi WNW 9.2 mph - N/A   Clear
9:15 PM 32.5 °F 24.2 °F 19.2 °F 58% 30.26 in 10.0 mi WNW 10.4 mph 19.6 mph N/A   Clear
9:35 PM 32.2 °F 23.2 °F 19.2 °F 59% 30.26 in 10.0 mi WNW 11.5 mph - N/A   Clear
9:55 PM 32.0 °F 23.0 °F 18.7 °F 58% 30.26 in 10.0 mi NW 11.5 mph - N/A   Clear
10:15 PM 32.0 °F 24.2 °F 18.7 °F 58% 30.26 in 10.0 mi NW 9.2 mph - N/A   Clear
10:35 PM 31.6 °F 24.4 °F 19.0 °F 60% 30.26 in 10.0 mi NW 8.1 mph - N/A   Clear
10:55 PM 31.6 °F 24.4 °F 18.9 °F 59% 30.27 in 10.0 mi NW 8.1 mph - N/A   Clear
11:15 PM 30.2 °F 23.4 °F 19.2 °F 64% 30.27 in 10.0 mi WNW 6.9 mph - N/A   Clear
11:35 PM 30.4 °F 21.5 °F 19.6 °F 64% 30.28 in 10.0 mi NW 10.4 mph - N/A   Clear
11:55 PM 30.7 °F 24.9 °F 19.0 °F 62% 30.28 in 10.0 mi NW 5.8 mph - N/A   Clear